[Date Prev][Date Next][Thread Prev][Thread Next] - [Date Index][Thread Index][Author Index]

2 Line ISS Keps 10-4



ISS
1 25544U 98067A   05276.81122339  .00014670  00000-0  10657-3 0  4792
2 25544 051.6435 064.5455 0001814 094.5593 060.7896 15.73643663392772
----
Via the sarex mailing list at AMSAT.ORG courtesy of AMSAT-NA.
To unsubscribe, send "unsubscribe sarex" to Majordomo@amsat.org



AMSAT Top AMSAT Home